Location: Capelle
(50.3413°N, 1.9974°E)
Time: 09:56:54
(UTC+00:00)

NOSS 2-3 (C) - Pass Details

Date: 12 January 2026
Orbit: 456 x 1719 km, 63.3° (Epoch: 18 February)

Event Time Altitude Azimuth Distance (km) Brightness Sun altitude
Rises 17:28:50 0° 316° (NW) 2,929 7.4 -11.6°
Reaches altitude 10° 17:30:50 10° 318° (NW) 2,146 6.6 -11.9°
Maximum altitude 17:35:44 79° 45° (NE) 871 4.2 -12.7°
Drops below altitude 10° 17:42:34 10° 133° (SE) 2,954 6.7 -13.7°
Sets 17:45:43 0° 135° (SE) 4,124 7.5 -14.2°
